Helicity
98 80 147 87 208 288 257 195 132 155 110 69 73 84 75 92 82 90 132 178 135 75 71 44 75 76 89 92 159 115 117 100
114 71 149 137 183 338 287 225 180 195 157 157 143 171 154 118 110 106 113 183 205 153 120 132 65 148 158 145 164 172 156 140
105 135 154 202 192 284 366 277 238 226 212 187 177 181 170 155 125 121 144 181 234 237 200 184 188 172 201 186 220 222 191 208
104 146 194 250 216 258 308 312 289 250 215 198 171 143 152 156 163 168 204 215 273 280 253 224 212 228 245 253 258 275 276 226
18 155 205 268 277 279 244 301 325 283 247 256 244 274 284 277 288 315 258 253 276 311 309 273 248 248 252 272 292 318 319 302
30 51 130 166 252 269 252 233 292 306 292 263 277 270 272 282 325 322 304 278 293 311 333 333 303 284 298 288 294 314 347 333
102 66 85 84 160 254 269 309 270 318 356 324 286 281 264 297 324 381 355 339 334 324 336 343 349 309 289 334 290 300 316 325
77 121 108 81 135 131 200 271 208 217 345 368 363 348 320 267 315 367 364 341 353 352 382 356 359 338 310 279 285 285 320 325
145 153 187 162 124 110 4 144 204 279 288 328 389 355 424 358 304 325 319 300 320 334 351 351 318 305 282 261 257 273 288 332
133 140 139 98 111 148 113 88 229 293 319 321 277 301 306 335 290 283 276 251 275 290 328 337 320 309 286 274 281 266 303 301
105 75 58 131 94 119 38 97 181 218 193 162 137 150 221 295 293 250 237 197 239 279 323 342 347 345 330 307 286 258 284 320
153 105 47 194 199 137 75 63 80 120 155 139 142 159 149 215 228 202 198 186 170 245 359 387 378 383 410 318 279 266 270 277
138 184 144 139 219 167 84 62 73 75 93 118 123 129 133 133 147 159 151 165 196 219 333 360 377 421 414 345 268 282 246 224
132 58 88 93 99 87 127 204 218 127 151 125 111 119 120 113 131 136 147 156 184 198 255 343 396 409 400 370 282 259 261 215
182 207 105 77 97 130 85 156 213 246 128 108 147 147 116 130 117 118 148 165 180 207 230 286 382 384 374 350 309 312 286 239
92 136 167 90 92 102 106 117 85 98 139 115 107 92 113 135 135 103 109 163 182 197 226 268 324 360 381 391 425 346 306 281
46 40 54 49 48 49 54 67 46 9 54 88 33 37 32 59 99 132 134 139 165 183 201 252 303 353 415 501 415 337 339 410
35 69 109 103 165 112 46 51 62 91 37 33 39 5 8 29 27 92 141 150 176 175 203 223 243 356 438 474 371 339 405 401
6 91 100 95 64 160 182 117 138 77 75 58 63 52 32 32 57 51 61 132 181 257 300 316 390 475 471 397 369 401 417 404
Wind_Speed
40 40 37 33 31 29 28 27 25 28 23 25 25 21 22 25 27 35 33 37 40 46 39 46 39 38 34 32 29 29 25 23
43 43 41 39 36 36 33 30 29 26 26 25 24 28 23 24 25 26 34 31 34 36 39 31 37 32 33 29 23 23 22 19
47 44 43 44 41 40 38 36 33 31 28 26 25 22 24 22 24 24 26 28 28 30 32 35 31 28 28 26 24 17 18 10
53 48 49 46 48 43 44 40 38 38 32 28 26 26 24 24 27 30 30 31 30 32 32 30 31 30 28 27 23 24 19 17
74 56 52 51 50 48 44 44 42 40 39 37 36 35 35 34 33 33 35 35 36 34 33 33 32 30 32 30 28 25 23 21
82 68 47 50 49 50 47 43 46 47 45 44 43 44 39 37 37 37 39 39 40 39 37 36 38 37 35 35 31 32 29 28
83 82 67 59 42 48 52 55 55 50 53 52 50 48 47 44 43 44 44 44 43 43 42 41 38 39 40 38 38 34 34 31
81 87 87 85 83 66 58 62 62 61 56 57 58 58 54 53 50 49 48 47 45 43 44 43 41 40 39 39 38 38 35 35
62 64 66 67 77 91 83 60 70 72 68 67 63 66 64 61 58 54 52 51 49 47 44 44 43 41 40 38 38 37 38 36
54 54 67 77 71 70 75 86 71 66 70 74 77 73 67 65 62 59 60 56 54 48 47 46 44 43 43 42 40 40 38 39
63 61 61 55 63 65 67 66 60 62 68 76 81 80 75 67 66 65 61 61 57 52 49 48 46 44 46 46 45 42 42 40
54 55 49 42 48 51 56 59 64 67 69 71 73 72 73 69 66 68 65 63 60 58 53 52 50 48 46 49 47 44 44 42
51 52 50 54 57 55 53 60 56 59 60 63 69 70 69 71 73 68 65 65 64 62 57 55 53 50 48 49 48 44 44 43
54 62 64 61 63 56 53 50 54 53 56 62 66 67 70 77 76 72 71 72 71 67 63 61 57 55 52 50 49 47 44 41
69 67 63 64 59 58 61 65 67 64 60 60 62 64 68 70 73 79 77 74 75 73 71 67 63 61 57 52 50 48 45 42
78 77 73 68 72 74 72 72 70 69 74 72 70 69 68 71 75 74 77 79 77 77 77 74 70 65 62 55 52 49 46 42
81 84 77 79 78 74 77 79 78 76 79 79 74 73 72 74 75 76 78 78 77 76 77 75 73 69 66 57 54 52 46 40
84 72 74 74 71 74 82 82 76 76 79 83 85 80 79 76 74 75 78 80 79 75 75 75 73 70 63 56 55 53 47 41
72 66 71 72 79 83 83 78 79 80 84 87 88 86 82 77 76 78 78 72 71 74 72 67 63 59 53 52 52 51 47 41
Wind_Direction
237 232 221 224 214 205 196 191 188 182 181 181 182 182 184 183 181 182 180 182 185 189 186 191 186 188 188 188 187 191 195 197
240 238 228 228 224 215 208 205 202 199 197 198 198 198 198 200 199 195 192 191 191 192 195 193 195 194 195 195 195 197 200 204
245 235 234 227 232 222 219 215 213 211 212 218 221 228 219 223 216 217 211 208 208 208 206 205 205 208 207 207 207 218 218 220
252 241 234 232 234 233 226 222 220 220 224 236 243 248 246 236 229 226 232 228 226 220 219 220 221 220 224 224 227 223 241 240
258 247 239 234 235 239 232 232 229 226 226 236 236 238 235 228 238 247 243 235 231 234 235 234 237 242 234 237 239 243 243 257
256 261 253 235 239 239 242 242 240 239 234 237 241 245 250 253 260 251 250 248 238 238 240 244 241 246 251 244 246 241 247 256
260 258 260 257 244 239 246 249 251 243 240 238 242 247 250 257 258 258 255 253 250 242 243 243 249 248 248 254 250 249 246 258
258 257 255 259 260 265 258 253 249 248 249 245 245 248 252 253 257 260 259 256 254 247 244 248 248 247 251 253 253 251 253 255
257 255 261 265 260 261 266 265 258 257 255 256 260 255 256 259 259 262 260 257 257 258 252 250 250 252 253 253 254 253 255 264
275 270 269 268 270 271 272 267 261 258 262 265 266 266 259 258 261 259 261 261 261 258 256 252 253 254 253 253 253 252 261 260
276 278 281 271 275 271 273 273 268 268 270 271 270 269 267 260 261 261 262 259 264 260 256 256 255 258 257 254 253 255 258 267
281 282 294 287 283 281 277 273 273 276 276 277 274 271 269 267 262 262 264 263 257 262 257 257 257 258 262 256 253 255 257 263
280 282 285 285 289 289 284 281 277 275 275 276 276 275 273 270 267 265 263 263 262 260 258 256 258 260 261 254 250 253 255 257
290 281 277 285 284 289 294 295 294 286 286 283 281 278 276 273 272 269 266 265 265 263 260 259 258 260 262 257 250 251 255 257
287 287 284 281 286 289 288 286 288 294 291 287 286 287 284 279 276 272 270 267 266 266 263 261 262 262 262 259 249 251 254 257
284 284 285 286 282 283 285 288 288 289 287 285 286 289 289 286 281 277 274 271 268 267 266 264 263 261 259 253 247 249 251 254
285 283 289 288 284 285 284 282 282 284 283 285 287 288 288 288 287 283 278 274 271 269 266 264 262 261 258 247 248 251 248 247
287 287 289 291 296 291 285 285 285 284 284 285 285 285 285 286 287 286 284 278 274 270 268 265 263 261 253 245 246 250 246 247
298 298 298 293 291 291 292 290 286 286 285 286 286 285 285 285 286 285 284 284 278 273 270 268 264 259 247 242 242 246 248 247